Weather reports worldwide

Advertisment
Benson, United Kingdom (3658): temperature & dewpoint: 12.08.2019 23:00:00 - 18.08.2019 23:00:00 (BST)Benson, United Kingdom (3658): temperature -20cm & temperature -100cm: 12.08.2019 23:00:00 - 18.08.2019 23:00:00 (BST)Benson, United Kingdom (3658): wind speed & gusts: 12.08.2019 23:00:00 - 18.08.2019 23:00:00 (BST)Benson, United Kingdom (3658): wind direction: 12.08.2019 23:00:00 - 18.08.2019 23:00:00 (BST)Benson, United Kingdom (3658): reduced air pressure: 12.08.2019 23:00:00 - 18.08.2019 23:00:00 (BST)Benson, United Kingdom (3658): visibility: 12.08.2019 23:00:00 - 18.08.2019 23:00:00 (BST)Benson, United Kingdom (3658): precipitation: 12.08.2019 23:00:00 - 18.08.2019 23:00:00 (BST)
Date & Time tt [°C] td [°C] tt -20cm [°C] tt -100cm [°C] ff [km/h] ff [kn] fx [km/h] fx [kn] dd ppp [hPa] vv [km] rr [mm]
18.08.2019 23:00:00 13,5 9,8 - - 15 8 - - SSW 1009,2 27 -
18.08.2019 22:00:00 13,9 10,2 - - 15 8 - - SSW 1008,6 26 0,0
18.08.2019 21:00:00 14,5 11,0 - - 15 8 - - SW 1007,9 27 0,0
18.08.2019 20:00:00 15,8 11,0 - - 16 9 - - SW 1007,4 10 0,0
18.08.2019 19:00:00 15,9 12,2 - - 15 8 - - SW 1007,0 10 0,8
18.08.2019 18:00:00 18,8 9,5 - - 22 12 - - WSW 1006,3 10 0,0
18.08.2019 17:00:00 18,8 10,7 - - 22 12 - - SW 1006,2 10 0,0
18.08.2019 16:00:00 20,3 9,2 - - 28 15 48 26 WSW 1005,7 30 0,0
18.08.2019 15:00:00 20,0 10,0 - - 26 14 46 25 WSW 1005,4 10 0,0
18.08.2019 14:00:00 19,2 9,6 - - 28 15 - - WSW 1004,8 30 0,0
18.08.2019 13:00:00 18,9 10,8 - - 24 13 - - WSW 1004,5 10 0,0
18.08.2019 12:00:00 15,2 13,1 - - 15 8 - - WSW 1004,4 10 3,4
18.08.2019 11:00:00 16,8 13,0 - - 15 8 - - SSW 1004,1 21 0,0
18.08.2019 10:00:00 14,4 13,3 17,0 16,7 11 6 - - SW 1004,1 10 1,6
18.08.2019 09:00:00 15,1 12,2 - - 16 9 - - SSW 1003,3 15 0,0
18.08.2019 08:00:00 15,1 12,1 - - 15 8 - - SSW 1002,6 15 0,0
18.08.2019 07:00:00 13,9 11,9 - - 9 5 - - SSW 1002,6 10 0,0
18.08.2019 06:00:00 13,2 12,4 - - 8 4 - - S 1002,7 10 0,0
18.08.2019 05:00:00 14,2 12,3 - - 11 6 - - S 1002,9 10 0,0
18.08.2019 04:00:00 14,5 12,4 - - 13 7 - - S 1003,4 25 0,0
18.08.2019 03:00:00 14,5 12,5 - - 15 8 - - S 1003,6 23 0,0
18.08.2019 02:00:00 14,9 12,8 - - 13 7 - - SSW 1003,8 10 0,0
18.08.2019 01:00:00 15,2 13,3 - - 13 7 - - SSW 1004,6 21 0,0
18.08.2019 00:00:00 15,2 13,2 - - 13 7 - - S 1004,0 10 0,0
17.08.2019 23:00:00 15,3 12,9 - - 11 6 - - SSW 1005,4 10 0,0
17.08.2019 22:00:00 16,1 11,1 - - 11 6 - - S 1004,9 10 0,0
17.08.2019 21:00:00 17,5 11,2 - - 8 4 - - SW 1005,0 29 0,0
17.08.2019 20:00:00 18,3 11,1 - - 13 7 - - W 1004,7 27 0,0
17.08.2019 19:00:00 19,7 11,6 - - 22 12 - - SSW 1004,4 29 0,0
17.08.2019 18:00:00 21,2 8,5 - - 13 7 - - WSW 1004,1 10 0,0
17.08.2019 17:00:00 21,8 8,4 - - 21 11 - - WSW 1004,5 10 0,0
17.08.2019 16:00:00 21,0 9,2 - - 24 13 - - SW 1004,7 30 0,0
17.08.2019 15:00:00 21,7 9,6 - - 26 14 48 26 WSW 1004,6 10 0,0
17.08.2019 14:00:00 21,8 10,2 - - 26 14 - - WSW 1004,6 10 0,0
17.08.2019 13:00:00 20,5 10,7 - - 26 14 - - SW 1004,4 10 0,0
17.08.2019 12:00:00 18,8 13,9 - - 15 8 - - WSW 1004,7 10 0,0
17.08.2019 11:00:00 18,6 13,7 - - 24 13 50 27 SW 1004,8 10 0,0
17.08.2019 10:00:00 18,0 13,6 16,7 16,7 26 14 - - SW 1004,4 10 0,0
17.08.2019 09:00:00 16,5 13,3 - - 24 13 - - SSW 1004,3 10 0,0
17.08.2019 08:00:00 15,3 13,3 - - 15 8 - - SSW 1004,2 10 0,0
17.08.2019 07:00:00 14,1 12,8 - - 16 9 - - SSW 1003,9 19 0,0
17.08.2019 06:00:00 13,8 12,8 - - 13 7 - - SSW 1003,5 21 0,0
17.08.2019 05:00:00 13,4 12,3 - - 9 5 - - SSW 1003,6 25 0,0
17.08.2019 04:00:00 15,0 13,0 - - 11 6 - - WSW 1003,4 27 0,0
17.08.2019 03:00:00 17,0 15,6 - - 15 8 - - WSW 1002,9 30 0,2
17.08.2019 02:00:00 17,2 16,6 - - 11 6 - - WSW 1002,7 30 0,4
17.08.2019 01:00:00 17,3 16,5 - - 15 8 - - S 1002,7 10 0,0
17.08.2019 00:00:00 17,1 16,3 - - 16 9 - - S 1002,9 40 0,0
16.08.2019 23:00:00 16,5 16,1 - - 18 10 - - S 1003,2 18 0,2
16.08.2019 22:00:00 16,5 16,0 - - 22 12 - - S 1003,7 10 0,8
16.08.2019 21:00:00 16,3 15,7 - - 28 15 - - S 1003,9 11 0,6
16.08.2019 20:00:00 16,2 15,5 - - 31 17 48 26 S 1004,4 10 1,0
16.08.2019 19:00:00 16,1 15,4 - - 31 17 57 31 S 1005,1 6 0,8
16.08.2019 18:00:00 16,0 15,1 - - 29 16 50 27 S 1006,1 10 0,6
16.08.2019 17:00:00 15,8 14,8 - - 29 16 48 26 S 1007,1 8 0,4
16.08.2019 16:00:00 15,7 14,9 - - 28 15 46 25 S 1008,3 10 1,0
16.08.2019 15:00:00 15,9 14,2 - - 28 15 - - S 1008,9 10 0,2
16.08.2019 14:00:00 15,6 14,3 - - 26 14 - - S 1009,5 10 1,6
16.08.2019 13:00:00 15,9 13,6 - - 24 13 - - S 1010,7 12 0,4
16.08.2019 12:00:00 16,5 13,2 - - 28 15 - - S 1010,9 10 0,2
16.08.2019 11:00:00 17,2 12,4 - - 28 15 - - S 1011,6 10 0,0
16.08.2019 10:00:00 16,4 13,5 16,9 16,7 21 11 - - SSW 1012,7 20 0,0
16.08.2019 09:00:00 16,3 13,9 - - 22 12 - - S 1013,2 10 0,0
16.08.2019 08:00:00 14,9 13,6 - - 16 9 - - S 1013,8 10 0,0
16.08.2019 07:00:00 13,6 12,7 - - 15 8 - - S 1014,2 10 0,0
16.08.2019 06:00:00 13,3 12,2 - - 15 8 - - S 1014,8 22 0,0
16.08.2019 05:00:00 13,0 12,2 - - 13 7 - - S 1015,3 10 0,0
16.08.2019 04:00:00 12,1 11,9 - - 8 4 - - S 1015,7 10 0,0
16.08.2019 03:00:00 11,8 11,4 - - 8 4 - - S 1016,2 10 0,0
16.08.2019 02:00:00 11,3 10,3 - - 8 4 - - SSE 1016,7 27 0,0
16.08.2019 01:00:00 12,1 11,4 - - 9 5 - - SSE 1016,9 29 0,0
16.08.2019 00:00:00 11,7 10,3 - - 9 5 - - S 1017,4 10 0,0
15.08.2019 23:00:00 11,3 8,7 - - 9 5 - - S 1017,5 10 0,0
15.08.2019 22:00:00 13,1 9,6 - - 4 2 - - SSE 1017,2 35 0,0
15.08.2019 21:00:00 15,7 9,5 - - 5 3 - - WNW 1016,7 30 0,0
15.08.2019 20:00:00 18,0 9,6 - - 11 6 - - WNW 1016,1 30 0,0
15.08.2019 19:00:00 19,6 9,6 - - 15 8 - - W 1015,9 30 0,0
15.08.2019 18:00:00 19,4 9,4 - - 22 12 - - W 1015,4 29 0,0
15.08.2019 17:00:00 20,1 9,5 - - 21 11 - - W 1014,5 10 0,0
15.08.2019 16:00:00 20,5 9,2 - - 24 13 - - W 1013,9 10 0,0
15.08.2019 15:00:00 20,4 9,6 - - 22 12 48 26 W 1013,8 10 0,0
15.08.2019 14:00:00 20,8 9,8 - - 28 15 - - W 1013,2 10 0,0
15.08.2019 13:00:00 20,5 10,5 - - 29 16 - - W 1012,7 10 0,0
15.08.2019 12:00:00 19,3 11,6 - - 26 14 - - W 1012,2 10 0,0
15.08.2019 11:00:00 19,3 11,3 - - 34 18 48 26 W 1011,4 10 0,0
15.08.2019 10:00:00 18,0 12,0 17,0 16,9 24 13 - - W 1011,0 10 0,0
15.08.2019 09:00:00 17,2 12,2 - - 24 13 - - W 1010,5 30 0,0
15.08.2019 08:00:00 16,3 12,9 - - 21 11 - - W 1009,7 10 0,0
15.08.2019 07:00:00 15,8 13,3 - - 18 10 - - WSW 1009,4 10 0,0
15.08.2019 06:00:00 15,3 13,6 - - 13 7 - - SW 1008,9 10 0,0
15.08.2019 05:00:00 13,6 12,3 - - 11 6 - - SSW 1008,4 10 0,0
15.08.2019 04:00:00 14,8 13,0 - - 13 7 - - SW 1008,4 30 0,0
15.08.2019 03:00:00 15,6 13,5 - - 11 6 - - WSW 1008,3 30 0,0
15.08.2019 02:00:00 17,0 15,2 - - 16 9 - - WSW 1007,9 26 0,0
15.08.2019 01:00:00 17,0 15,6 - - 15 8 - - SW 1007,9 27 0,0
15.08.2019 00:00:00 17,0 15,5 - - 11 6 - - SW 1007,8 28 0,0
14.08.2019 23:00:00 16,8 15,3 - - 15 8 - - SSW 1007,4 10 0,0
14.08.2019 22:00:00 17,1 15,3 - - 11 6 - - SSW 1007,6 10 0,2
14.08.2019 21:00:00 17,0 16,5 - - 11 6 - - S 1007,4 30 0,2
14.08.2019 20:00:00 17,1 16,2 - - 11 6 - - S 1007,4 4,0 0,0
14.08.2019 19:00:00 17,2 15,8 - - 16 9 - - S 1007,6 10 0,0
14.08.2019 18:00:00 16,9 15,6 - - 22 12 - - S 1007,8 10 0,0
14.08.2019 17:00:00 16,7 15,6 - - 26 14 - - S 1008,3 10 0,0
14.08.2019 16:00:00 16,5 15,7 - - 26 14 - - S 1009,1 10 0,0
14.08.2019 15:00:00 16,4 15,3 - - 26 14 - - S 1009,7 10 0,0
14.08.2019 14:00:00 16,1 15,3 - - 28 15 50 27 S 1010,3 10 0,0
14.08.2019 13:00:00 14,7 14,0 - - 34 18 48 26 S 1011,0 10 0,8
14.08.2019 12:00:00 14,3 13,5 - - 31 17 - - SSE 1011,5 10 1,2
14.08.2019 11:00:00 14,1 13,1 - - 26 14 - - SSE 1012,6 5 3,4
14.08.2019 10:00:00 14,5 13,7 17,2 17,0 21 11 - - S 1013,4 4,0 3,0
14.08.2019 09:00:00 14,6 13,9 - - 22 12 - - SSE 1013,8 7 1,4
14.08.2019 08:00:00 14,3 13,7 - - 16 9 - - S 1014,4 10 1,2
14.08.2019 07:00:00 14,4 13,5 - - 15 8 - - S 1014,7 10 0,0
14.08.2019 06:00:00 13,3 12,6 - - 13 7 - - S 1015,1 17 0,0
14.08.2019 05:00:00 13,5 12,8 - - 15 8 - - S 1015,4 10 0,0
14.08.2019 04:00:00 12,4 11,5 - - 11 6 - - S 1016,0 10 0,0
14.08.2019 03:00:00 12,7 11,0 - - 9 5 - - S 1016,6 10 0,0
14.08.2019 02:00:00 13,0 11,1 - - 9 5 - - S 1016,8 35 0,0
14.08.2019 01:00:00 12,3 10,6 - - 9 5 - - S 1017,2 10 0,0
14.08.2019 00:00:00 12,1 9,9 - - 9 5 - - S 1017,5 35 0,0
13.08.2019 23:00:00 14,0 10,6 - - 9 5 - - SSW 1017,3 10 0,0
13.08.2019 22:00:00 14,6 10,5 - - 9 5 - - SSW 1017,4 10 0,0
13.08.2019 21:00:00 16,5 7,6 - - 8 4 - - SW 1017,3 25 0,0
13.08.2019 20:00:00 18,5 7,4 - - 13 7 - - W 1017,1 10 0,0
13.08.2019 19:00:00 19,8 6,5 - - 18 10 - - W 1016,7 10 0,0
13.08.2019 18:00:00 19,9 5,2 - - 16 9 - - W 1016,6 10 0,0
13.08.2019 17:00:00 20,8 5,7 - - 22 12 - - WNW 1016,7 10 0,0
13.08.2019 16:00:00 20,9 6,3 - - 15 8 - - WSW 1016,7 10 0,0
13.08.2019 15:00:00 19,8 4,2 - - 16 9 - - W 1017,0 10 0,0
13.08.2019 14:00:00 19,1 5,7 - - 15 8 - - WSW 1017,4 10 0,0
13.08.2019 13:00:00 18,3 6,9 - - 18 10 - - W 1017,8 40 0,0
13.08.2019 12:00:00 18,7 7,3 - - 13 7 - - W 1017,9 10 0,0
13.08.2019 11:00:00 18,8 7,1 - - 11 6 - - W 1018,0 10 0,0
13.08.2019 10:00:00 16,8 8,1 17,2 17,0 13 7 - - WNW 1018,1 10 0,0
13.08.2019 09:00:00 15,3 9,7 - - 11 6 - - W 1018,1 10 0,0
13.08.2019 08:00:00 11,9 9,6 - - 4 2 - - SSW 1018,0 10 0,0
13.08.2019 07:00:00 10,3 9,5 - - 8 4 - - S 1017,7 10 0,0
13.08.2019 06:00:00 7,6 7,1 - - 8 4 - - SSE 1017,4 24 0,0
13.08.2019 05:00:00 8,1 7,8 - - 8 4 - - SSE 1017,2 10 0,0
13.08.2019 04:00:00 9,1 8,0 - - 5 3 - - S 1017,3 45 0,0
13.08.2019 03:00:00 8,2 7,2 - - 11 6 - - S 1017,5 55 0,0
13.08.2019 02:00:00 10,4 8,4 - - 8 4 - - S 1017,4 45 0,0
13.08.2019 01:00:00 10,0 8,0 - - 8 4 - - S 1017,7 10 0,0
13.08.2019 00:00:00 12,3 9,0 - - 9 5 - - SSW 1017,7 10 0,0
12.08.2019 23:00:00 13,0 8,6 - - 13 7 - - W 1017,5 10 0,0

tt = temperature
td = dewpoint
tt -20cm = temperature -20cm
tt -100cm = temperature -100cm
ff = wind speed
fx = gusts
dd = wind direction
ppp = reduced air pressure
vv = visibility
rr = precipitation

Next stations